******************************************************************************* JPL/HORIZONS 255P/Levy 2025-Dec-12 17:46:56 Rec #:90001220 (+COV) Soln.date: 2021-Oct-18_22:42:54 # obs: 503 (2006-2021) IAU76/J2000 helio. ecliptic osc. elements (au, days, deg., period=Julian yrs): EPOCH= 2454456.5 ! 2007-Dec-22.0000000 (TDB) RMSW= n.a. EC= .6720097835717624 QR= .9920175569860368 TP= 2454015.884694566 OM= 279.7800482749129 W= 179.5929552438922 IN= 18.33304278569389 A= 3.024533986985812 MA= 82.56119098277102 ADIST= 5.057050416985588 PER= 5.2601230762461 N= .187377038 ANGMOM= .022154427 DAN= 5.05679 DDN= .99203 L= 99.39366269999999 B= .1280309 MOID= .00881278 TP= 2006-Oct-07.3846945660 Comet physical (GM= km^3/s^2; RAD= km): GM= n.a. RAD= n.a. M1= 11.5 M2= 15.1 k1= 38. k2= 5. PHCOF= .030 Comet non-gravitational force model (AMRAT=m^2/kg;A1-A3=au/d^2;DT=days;R0=au): AMRAT= 0. DT= 0. A1= 7.19092965126E-9 A2= -4.020938575268E-9 A3= 0. Standard model: ALN= .1112620426 NK= 4.6142 NM= 2.15 NN= 5.093 R0= 2.808 COMET comments 1: soln ref.= JPL#40, data arc: 2006-10-02 to 2021-10-07 2: k1=38., k2=5., phase coef.=0.03; ******************************************************************************* ******************************************************************************* Ephemeris / WWW_USER Fri Dec 12 17:46:56 2025 Pasadena, USA / Horizons ******************************************************************************* Target body name: 255P/Levy {source: JPL#40} Center body name: Earth (399) {source: DE441} Center-site name: GEOCENTRIC ******************************************************************************* Start time : A.D. 2022-Sep-07 00:00:00.0000 UT Stop time : A.D. 2022-Sep-08 00:00:00.0000 UT Step-size : 180 minutes ******************************************************************************* Target pole/equ : undefined Target radii : undefined Center geodetic : 0.0, 0.0, -6378.137 {E-lon(deg),Lat(deg),Alt(km)} Center cylindric: 0.0, 0.0, 0.0 {E-lon(deg),Dxy(km),Dz(km)} Center pole/equ : ITRF93 {East-longitude positive} Center radii : 6378.137, 6378.137, 6356.752 km {Equator_a, b, pole_c} Target primary : Sun Vis. interferer : MOON (R_eq= 1737.400) km {source: DE441} Rel. light bend : Sun {source: DE441} Rel. lght bnd GM: 1.3271E+11 km^3/s^2 Small-body perts: Yes {source: SB441-N16} Atmos refraction: NO (AIRLESS) RA format : HMS Time format : CAL Calendar mode : Mixed Julian/Gregorian EOP file : eop.251212.p260310 EOP coverage : DATA-BASED 1962-JAN-20 TO 2025-DEC-12. PREDICTS-> 2026-MAR-09 Units conversion: 1 au= 149597870.700 km, c= 299792.458 km/s, 1 day= 86400.0 s Table cut-offs 1: Elevation (-90.0deg=NO ),Airmass (>38.000=NO), Daylight (NO ) Table cut-offs 2: Solar elongation ( 0.0,180.0=NO ),Local Hour Angle( 0.0=NO ) Table cut-offs 3: RA/DEC angular rate ( 0.0=NO ) ******************************************************************************* Initial IAU76/J2000 heliocentric ecliptic osculating elements (au, days, deg.): EPOCH= 2454456.5 ! 2007-Dec-22.0000000 (TDB) RMSW= n.a. EC= .6720097835717624 QR= .9920175569860368 TP= 2454015.884694566 OM= 279.7800482749129 W= 179.5929552438922 IN= 18.33304278569389 Equivalent ICRF heliocentric cartesian coordinates (au, au/d): X=-1.315814486602441E+00 Y=-3.108112496230802E+00 Z=-2.040587681309125E+00 VX= 3.484324082586940E-03 VY=-6.075393740731561E-03 VZ=-1.779277003561458E-03 Comet physical (GM= km^3/s^2; RAD= km): GM= n.a. RAD= n.a. M1= 11.5 M2= 15.1 k1= 38. k2= 5. PHCOF= .030 Comet non-gravitational force model (AMRAT=m^2/kg;A1-A3=au/d^2;DT=days;R0=au): AMRAT= 0. DT= 0. A1= 7.19092965126E-9 A2= -4.020938575268E-9 A3= 0. Standard model: ALN= .1112620426 NK= 4.6142 NM= 2.15 NN= 5.093 R0= 2.808 ******************************************************************************* Date__(UT)__HR:MN r rdot ************************************************** $$SOE 2022-Sep-07 00:00 0.848698772255 -0.3005464 2022-Sep-07 03:00 0.848679358847 -0.2372836 2022-Sep-07 06:00 0.848664512688 -0.1740152 2022-Sep-07 09:00 0.848654234127 -0.1107427 2022-Sep-07 12:00 0.848648523407 -0.0474675 2022-Sep-07 15:00 0.848647380661 0.0158088 2022-Sep-07 18:00 0.848650805914 0.0790847 2022-Sep-07 21:00 0.848658799084 0.1423587 2022-Sep-08 00:00 0.848671359978 0.2056293 $$EOE ******************************************************************************* Column meaning: TIME Times PRIOR to 1962 are UT1, a mean-solar time closely related to the prior but now-deprecated GMT. Times AFTER 1962 are in UTC, the current civil or "wall-clock" time-scale. UTC is kept within 0.9 seconds of UT1 using integer leap-seconds for 1972 and later years. Conversion from the internal Barycentric Dynamical Time (TDB) of solar system dynamics to the non-uniform civil UT time-scale requested for output has not been determined for UTC times after the next July or January 1st. Therefore, the last known leap-second is used as a constant over future intervals. Time tags refer to the UT time-scale conversion from TDB on Earth regardless of observer location within the solar system, although clock rates may differ due to the local gravity field and no analog to "UT" may be defined for that location. Any 'b' symbol in the 1st-column denotes a B.C. date. First-column blank (" ") denotes an A.D. date. CALENDAR SYSTEM Mixed calendar mode was active such that calendar dates after AD 1582-Oct-15 (if any) are in the modern Gregorian system. Dates prior to 1582-Oct-5 (if any) are in the Julian calendar system, which is automatically extended for dates prior to its adoption on 45-Jan-1 BC. The Julian calendar is useful for matching historical dates. The Gregorian calendar more accurately corresponds to the Earth's orbital motion and seasons. A "Gregorian-only" calendar mode is available if such physical events are the primary interest. NOTE: "n.a." in output means quantity "not available" at the print-time. 'r rdot' = The Sun's apparent range ("r", light-time aberrated) and range-rate ("rdot") relative to the target center, as seen by the observer. A positive "rdot" means the target center was moving away from the Sun, negative means moving toward the Sun. Units: AU and KM/S Computations by ... Solar System Dynamics Group, Horizons On-Line Ephemeris System 4800 Oak Grove Drive, Jet Propulsion Laboratory Pasadena, CA 91109 USA General site: https://ssd.jpl.nasa.gov/ Mailing list: https://ssd.jpl.nasa.gov/email_list.html System news : https://ssd.jpl.nasa.gov/horizons/news.html User Guide : https://ssd.jpl.nasa.gov/horizons/manual.html Connect : browser https://ssd.jpl.nasa.gov/horizons/app.html#/x API https://ssd-api.jpl.nasa.gov/doc/horizons.html command-line telnet ssd.jpl.nasa.gov 6775 e-mail/batch https://ssd.jpl.nasa.gov/ftp/ssd/horizons_batch.txt scripts https://ssd.jpl.nasa.gov/ftp/ssd/SCRIPTS Author : Jon.D.Giorgini@jpl.nasa.gov ******************************************************************************* !$$SOF COMMAND = '255P' QUANTITIES = '19' START_TIME = '2022-Sep-07' STEP_SIZE = '3 hours' STOP_TIME = '2022-Sep-08'